This is the latest recevied weather packets stored in our database for station/object N1IJV-10. If no packets are shown the sender has not sent any weather packets the latest 10 day(s).
| Time | Temp. | Humidity | Pressure | Rain* | Wind** | Luminosity | Snow |
|---|---|---|---|---|---|---|---|
| 1778118039 | 7.78° C | 55% | 1014.4 hPa | 0 mm | - | 0 W/m² | - |
| 1778117737 | 7.78° C | 55% | 1014.4 hPa | 0 mm | - | 0 W/m² | - |
| 1778117434 | 8.33° C | 53% | 1014.4 hPa | 0 mm | - | 0 W/m² | - |
| 1778117131 | 8.33° C | 55% | 1014.3 hPa | 0 mm | - | 0 W/m² | - |
| 1778116827 | 8.33° C | 53% | 1014.1 hPa | 0 mm | - | 0 W/m² | - |
| 1778116525 | 8.33° C | 52% | 1014.4 hPa | 0 mm | - | 0 W/m² | - |
| 1778116220 | 8.33° C | 53% | 1014.6 hPa | 0 mm | - | 0 W/m² | - |
| 1778115915 | 8.89° C | 53% | 1014.4 hPa | 0 mm | - | 0 W/m² | - |
| 1778115612 | 8.89° C | 52% | 1014.3 hPa | 0 mm | - | 0 W/m² | - |
| 1778115309 | 8.89° C | 52% | 1014.1 hPa | 0 mm | - | 1 W/m² | - |
| 1778115005 | 8.89° C | 51% | 1014.3 hPa | 0 mm | - | 2 W/m² | - |
| 1778114703 | 8.89° C | 52% | 1014.2 hPa | 0 mm | - | 3 W/m² | - |
| 1778114400 | 9.44° C | 51% | 1014.1 hPa | 0 mm | - | 5 W/m² | - |
| 1778114095 | 9.44° C | 48% | 1014.1 hPa | 0 mm | - | 7 W/m² | - |
| 1778113790 | 9.44° C | 50% | 1014.1 hPa | 0 mm | - | 9 W/m² | - |
| 1778113487 | 10° C | 47% | 1014 hPa | 0 mm | - | 11 W/m² | - |
| 1778113184 | 10° C | 48% | 1014.2 hPa | 0 mm | - | 15 W/m² | - |
| 1778112880 | 10° C | 48% | 1013.9 hPa | 0 mm | - | 18 W/m² | - |
| 1778112578 | 10° C | 48% | 1013.9 hPa | 0 mm | - | 20 W/m² | - |
| 1778112273 | 10° C | 48% | 1013.8 hPa | 0 mm | - | 23 W/m² | - |
| 1778111969 | 10° C | 49% | 1013.9 hPa | 0 mm | - | 22 W/m² | - |
| 1778111667 | 10° C | 49% | 1013.8 hPa | 0 mm | - | 19 W/m² | - |
| 1778111362 | 10.56° C | 48% | 1013.8 hPa | 0 mm | - | 21 W/m² | - |
| 1778111060 | 10.56° C | 48% | 1013.8 hPa | 0 mm | - | 25 W/m² | - |
| 1778110758 | 11.11° C | 47% | 1013.7 hPa | 0 mm | - | 42 W/m² | - |
* Rain latest hour (hover to see other rain measurements)
** Current wind speed in m/s (hover to see current wind gust speed)